User: anonymous   Login
Location: Azul
(36.7830°S, 59.8500°W)
Time: 15:36:14
(UTC-03:00)
Language:

CAS-4A - Orbit

View from above orbital plane
View from above orbital plane
View from above satellite
View from above satellite

Ground track
Ground track

The orbit data is extracted from the following two-line orbital elements,

1 42761U 17034D   22331.99469706  .00002479  00000-0  14871-3 0  9992
2 42761  43.0158 149.1105 0011355 251.3615 251.3934 15.13415618301121
Epoch (UTC): 27 November 2022 23:52:21
Eccentricity: 0.0011355
inclination: 43.0158°
perigee height: 518 km
apogee height: 533 km
right ascension of ascending node: 149.1105°
argument of perigee: 251.3615°
revolutions per day: 15.13415618
mean anomaly at epoch: 251.3934°
orbit number at epoch: 30112

The dashed part of the orbit path shows where the satellite is in the earth's shadow,  

DLR